Search for airport 
image banner adimage banner adimage banner ad
image banner ad

NV67 - Pilot Creek Ranches

Located in Montello, United States

ICAO - NV67, IATA -

Data provided by Airmate  

General information

Coordinates: N41°6'57" W114°6'49"
Elevation is 4980 feet MSL.
Magnetic variation is 15° East
View others Airports in Nevada

Operational data

Special qualification required
Current time UTC:
Current local time:
Weather at : KENV - Wendover ( 45 km )
METAR: KENV 150556Z AUTO 23004KT 10SM CLR 26/M15 A2995 RMK AO2 SLP091 T02611150 10400 20256 51016
TAF: KENV 150543Z 1506/1606 20009KT P6SM SKC FM150800 VRB05KT P6SM SKC FM151800 12014KT P6SM SKC FM152300 22022G32KT P6SM SKC FM160300 33018G26KT P6SM SCT150
View NOTAMs / SUP AIP / TFR affecting this airport [VIEW]
Communications frequencies: [VIEW]

Runways:

RWY identifierQFULength (ft)Width (ft)SurfaceLDA (ft)
07200025EARTH
25200025EARTH

Airport contact information

Address: Montello United States

Satellite view of NV67